Regional Weather Roundup
Issued by NWS

Home | Current Version | Previous Version | Graphics & Text | Print | Product List | Glossary On
Versions: 1 2 3 4 5 6 7 8 9 10 11 12 13 14 15 16 17 18 19 20 21 22 23 24 25 26 27 28 29 30 31 32 33 34 35 36 37 38 39 40 41 42 43 44 45 46 47 48 49 50
000
ASUS43 KMKX 270200
RWRWI

WISCONSIN REGIONAL WEATHER ROUNDUP
NATIONAL WEATHER SERVICE MILWAUKEE/SULLIVAN WI
900 PM CDT MON JUN 26 2017

NOTE: "FAIR" INDICATES FEW OR NO CLOUDS BELOW 12,000 FEET WITH NO
SIGNIFICANT WEATHER AND/OR OBSTRUCTIONS TO VISIBILITY.

WIZ001-002-006>008-014>016-023>028-270300-
NORTHWEST WISCONSIN

CITY           SKY/WX    TMP DP  RH WIND       PRES   REMARKS
SUPERIOR ARPT  NOT AVBL
ASHLAND        CLOUDY    57  48  72 W7        30.03F
HAYWARD        MOCLDY    59  51  75 CALM      30.07S
SIREN          CLEAR     57  50  78 CALM      30.08F
CUMBERLAND     CLEAR     55  50  82 SW3       30.09F
RICE LAKE      CLEAR     57  51  82 CALM      30.10F
CHETEK         CLEAR     54  53  98 CALM      30.09F
LADYSMITH      CLEAR     57  50  78 W3        30.09S
EAU CLAIRE     NOT AVBL
MENOMONIE      PTCLDY    62  48  61 CALM      30.09F
NEW RICHMOND   CLEAR     62  46  55 CALM      30.10S
OSCEOLA        CLEAR     64  45  48 N3        30.12S
$$

WIZ003>005-009-010-017-018-270300-
NORTH CENTRAL WISCONSIN

CITY           SKY/WX    TMP DP  RH WIND       PRES   REMARKS
MANITOWISH WTR CLEAR     55  48  77 W6        30.04S
ARBOR VITAE    CLEAR     57  48  71 NW3       30.04R
WOODRUFF       CLEAR     57  48  71 NW3       30.04R
RHINELANDER    PTCLDY    51  50  96 W7        30.04S
EAGLE RIVER    PTCLDY    54  46  76 CALM      30.02F
LAND O LAKES   CLEAR     52  47  85 NW3       30.04S
PHILLIPS       CLEAR     49  49 100 CALM      30.06F
TOMAHAWK       NOT AVBL
MEDFORD        CLOUDY    58  47  68 NW5       30.06F
MERRILL        PTCLDY    56  47  70 N5        30.06S
$$

WIZ029-030-035-036-043>047-270300-
CENTRAL WISCONSIN

CITY           SKY/WX    TMP DP  RH WIND       PRES   REMARKS
WAUSAU         PTCLDY    57  47  69 NW7       30.04R
MOSINEE        NOT AVBL
MARSHFIELD     CLEAR     56  47  71 NW6       30.06F
STEVENS POINT  CLEAR     58  45  60 W5        30.06S
WAUPACA        CLEAR     58  48  71 CALM      30.05S
WAUTOMA        CLEAR     55  50  83 CALM      30.06S
WISC RAPIDS    CLEAR     57  47  69 W5        30.07S
CAMP DOUGLAS   NOT AVBL
$$

WIZ011>013-019>022-031-037>040-048>050-270300-
NORTHEAST WISCONSIN

CITY           SKY/WX    TMP DP  RH WIND       PRES   REMARKS
ANTIGO         MOCLDY    54  49  84 W8        30.05R
SHAWANO        CLEAR     57  51  80 CALM      30.03S
OCONTO         CLEAR     53  52  97 CALM      30.02F
STURGEON BAY     N/A     56  51  84 CALM        N/A
GREEN BAY      CLEAR     54  54 100 CALM      30.03F
MANITOWOC      NOT AVBL
APPLETON       PTCLDY    55  46  71 CALM      30.04R
CLINTONVILLE   CLEAR     54  46  76 CALM      30.03S
OSHKOSH        CLEAR     56  47  71 CALM      30.04F
$$

WIZ032>034-041-042-053>061-270300-
SOUTHWEST WISCONSIN

CITY           SKY/WX    TMP DP  RH WIND       PRES   REMARKS
LA CROSSE      CLEAR     65  48  54 N5        30.08S
SPARTA         PTCLDY    61  47  61 CALM      30.09S
VIROQUA        MOCLDY    61  47  61 NW3       30.09S
BOSCOBEL       PTCLDY    58  46  64 CALM      30.09S
PRAIRIE DU CHI CLEAR     64  42  43 CALM      30.09S
PLATTEVILLE    CLEAR     62  45  53 NW3       30.09S
$$

WIZ056-057-062-063-064-067-068-270300-
SOUTH CENTRAL WISCONSIN

CITY           SKY/WX    TMP DP  RH WIND       PRES   REMARKS
REEDSBURG      CLEAR     59  47  63 CALM      30.07S
BARABOO/DELLS  CLEAR     58  45  60 CALM      30.07F
LONE ROCK      NOT AVBL
MINERAL POINT  CLEAR     63  45  51 CALM      30.09S
MADISON        PTCLDY    57  45  64 NW3       30.07S
MIDDLETON      CLEAR     58  47  66 NW3       30.08S
WATERTOWN      NOT AVBL
MONROE         CLEAR     59  43  55 NW3       30.08S
JANESVILLE     CLEAR     59  45  58 NW3       30.07
$$

WIZ051-052-058>065-066-070>072-270300-
SOUTHEAST WISCONSIN

CITY           SKY/WX    TMP DP  RH WIND       PRES   REMARKS
MILWAUKEE      MOCLDY    61  47  59 NW13      30.05R
WAUKESHA       MOCLDY    57  46  67 N5        30.07R
MILWAUKEE/TIMM CLOUDY    59  45  58 NW12      30.06S
RACINE         CLOUDY    62  44  51 N7        30.06S
KENOSHA        MOCLDY    59  46  62 NW8       30.06R
FOND DU LAC    CLEAR     58  47  66 N3        30.06R
SHEBOYGAN      CLEAR     54  52  93 NW6       30.04S
WEST BEND      CLOUDY    55  50  82 NW5       30.05S
JUNEAU         CLEAR     58  46  63 NW3       30.07S
$$

LSZ147-162-270300-
LAKE SUPERIOR

STATION/POSITION TIME  TEMP    WIND        PRES    WAVE
                       AIR SEA DIR/SP/G            HT/PER
                 (UTC) (F)     (DEG/KT/KT) (MB)    (FT/S)
W MID LAKE BUOY  0050   47 39  230/  6/  8 1016.3F   1/ 3
DEVILS ISLAND    0100   55     240/ 13/ 14 1016.7R
PORT WING        0100   57     220/  8/ 19 1017.3F
SAXON HARBOR     0140   61     210/  4/  7 1016.6S
$$

LMZ867-665-643>646-270300-
LAKE MICHIGAN

STATION/POSITION TIME  TEMP    WIND        PRES    WAVE
                       AIR SEA DIR/SP/G            HT/PER
                 (UTC) (F)     (DEG/KT/KT) (MB)    (FT/S)
CHAMBERS ISLAND  0140   59     280/  3/  8 1015.6S
S GREEN BAY BUOY 0130   60     300/  8/ 10 1016.2F
N MID LAKE BUOY  0050   57 56  300/  4/  6 1016.2R   2/ 4
NORTHPORT PIER   0140   57     250/  3/  5 1015.6F
KEWAUNEE LAKESHO 0118   58     320/  2/  5 1016.3
SHEBOYGAN LAKESH 0100   58     330/ 14/ 17 1016.9R
PORT WASHINGTON  0130   60     310/  5/  9 1017.9S
ATWATER BUOY     0009   60 56  320/ 14/ 17 1017.0R
MILWAUKEE LAKESH 0130   60     330/  9/ 13   N/A
S MID LAKE BUOY  0050   60 61  350/ 10/ 14 1017.0R   3/ 5
KENOSHA   LAKESH 0100   63     320/  8/ 17 1016.9
$$

TC  - TEMPERATURE IN CELSIUS
VSB - VISIBILITY IN STATUTE MILES
WCI - WIND CHILL INDEX
HX  - HEAT INDEX




USA.gov is the U.S. government's official web portal to all federal, state and local government web resources and services.